Stations météo

réclame
Mon MeteoGroup
Tain Range, Grande-Bretagne (3062): Température de l'air & dewpoint: 13.01.2020 20:00:00 - 19.01.2020 20:00:00 (GMT)Tain Range, Grande-Bretagne (3062): Température de l'air -20cm & Température de l'air -100cm: 13.01.2020 20:00:00 - 19.01.2020 20:00:00 (GMT)Tain Range, Grande-Bretagne (3062): Vitesse du vent & gusts: 13.01.2020 20:00:00 - 19.01.2020 20:00:00 (GMT)Tain Range, Grande-Bretagne (3062): Direction du vent: 13.01.2020 20:00:00 - 19.01.2020 20:00:00 (GMT)Tain Range, Grande-Bretagne (3062): reduced air pressure: 13.01.2020 20:00:00 - 19.01.2020 20:00:00 (GMT)Tain Range, Grande-Bretagne (3062): visibility: 13.01.2020 20:00:00 - 19.01.2020 20:00:00 (GMT)Tain Range, Grande-Bretagne (3062): Quantités de précipitations: 13.01.2020 20:00:00 - 19.01.2020 20:00:00 (GMT)
Date & Time tt [°C] td [°C] tt -20cm [°C] tt -100cm [°C] ff [km/h] ff [knt] fx [km/h] fx [knt] dd ppp [hPa] vv [km] rr [mm]
19.01.2020 20:00:00 9,3 4,1 - - 50 27 67 36 WSW 1034,8 50 0,0
19.01.2020 19:00:00 8,8 3,9 - - 41 22 57 31 WSW 1035,2 50 0,0
19.01.2020 18:00:00 8,7 3,1 - - 42 23 67 36 WSW 1035,7 50 0,0
19.01.2020 17:00:00 8,2 2,0 - - 34 18 46 25 WSW 1035,7 26 0,0
19.01.2020 16:00:00 6,4 1,2 - - 8 4 - - SSW 1035,8 50 0,0
19.01.2020 15:00:00 6,7 1,2 - - 21 11 - - SSW 1035,9 35 0,0
19.01.2020 14:00:00 6,5 1,0 - - 16 9 48 26 SSW 1035,3 50 0,0
19.01.2020 13:00:00 6,8 1,0 - - 28 15 - - SW 1035,4 40 0,0
19.01.2020 12:00:00 6,4 2,1 - - 21 11 - - WSW 1036,8 40 0,0
19.01.2020 11:00:00 6,0 2,5 - - 21 11 - - SW 1036,7 35 0,0
19.01.2020 10:00:00 5,4 2,4 - - 28 15 - - SSW 1036,1 50 0,0
19.01.2020 09:00:00 3,3 1,3 4,4 5,2 11 6 - - S 1037,8 4,2 0,0
19.01.2020 08:00:00 3,3 0,7 - - 16 9 - - S 1037,6 50 0,0
19.01.2020 07:00:00 3,3 0,7 - - 15 8 - - SSW 1037,4 50 0,0
19.01.2020 06:00:00 3,1 0,4 - - 18 10 - - SW 1037,2 27 0,0
19.01.2020 05:00:00 2,6 0,3 - - 22 12 - - SW 1036,6 35 0,0
19.01.2020 04:00:00 2,3 -0,3 - - 22 12 - - SW 1036,0 50 0,0
19.01.2020 03:00:00 3,5 -0,2 - - 24 13 - - WSW 1035,5 50 0,0
19.01.2020 02:00:00 3,1 0,0 - - 24 13 - - SW 1034,9 50 0,0
19.01.2020 01:00:00 2,2 -0,3 - - 21 11 - - SW 1034,5 40 0,0
19.01.2020 00:00:00 2,5 -0,4 - - 16 9 - - WSW 1034,3 35 0,0
18.01.2020 23:00:00 2,0 -0,2 - - 16 9 - - SW 1033,4 40 0,0
18.01.2020 22:00:00 1,3 -1,2 - - 16 9 - - SSW 1032,4 35 0,0
18.01.2020 21:00:00 3,6 0,4 - - 18 10 - - W 1031,4 30 0,0
18.01.2020 20:00:00 2,9 -0,2 - - 13 7 - - SW 1030,7 28 0,0
18.01.2020 19:00:00 5,2 1,3 - - 28 15 - - WNW 1029,7 30 0,0
18.01.2020 18:00:00 4,4 1,4 - - 28 15 - - NW 1028,6 26 0,0
18.01.2020 17:00:00 5,2 1,4 - - 29 16 - - WNW 1027,2 26 0,0
18.01.2020 16:00:00 5,1 1,8 - - 26 14 - - WNW 1025,7 35 0,0
18.01.2020 15:00:00 5,6 2,1 - - 26 14 - - WNW 1024,4 26 0,0
18.01.2020 14:00:00 4,9 2,4 - - 15 8 - - WNW 1023,6 27 0,0
18.01.2020 13:00:00 4,5 2,7 - - 21 11 48 26 W 1022,8 35 0,2
18.01.2020 12:00:00 4,6 2,3 - - 21 11 50 27 WNW 1021,8 12 0,4
18.01.2020 11:00:00 4,3 1,8 - - 22 12 - - WNW 1020,6 35 0,0
18.01.2020 10:00:00 3,3 0,7 - - 18 10 - - WSW 1019,3 45 0,0
18.01.2020 09:00:00 2,6 0,5 4,7 5,4 18 10 55 30 W 1018,2 27 0,2
18.01.2020 08:00:00 3,6 0,3 - - 24 13 46 25 W 1017,1 50 0,2
18.01.2020 07:00:00 3,1 0,6 - - 13 7 - - W 1016,1 26 0,0
18.01.2020 06:00:00 3,3 1,0 - - 26 14 - - W 1015,2 40 0,0
18.01.2020 05:00:00 2,1 0,1 - - 13 7 57 31 WSW 1014,4 45 0,2
18.01.2020 04:00:00 3,0 0,4 - - 28 15 55 30 W 1013,2 45 0,4
18.01.2020 03:00:00 3,0 -0,1 - - 22 12 - - WSW 1012,4 50 0,0
18.01.2020 02:00:00 2,5 0,4 - - 26 14 59 32 W 1011,5 45 0,0
18.01.2020 01:00:00 4,4 0,1 - - 21 11 - - W 1010,2 17 0,0
18.01.2020 00:00:00 3,5 0,9 - - 18 10 - - SW 1009,3 25 0,0
17.01.2020 23:00:00 3,9 1,1 - - 24 13 63 34 WNW 1008,3 27 0,0
17.01.2020 22:00:00 4,9 1,7 - - 39 21 57 31 W 1007,4 13 0,0
17.01.2020 21:00:00 5,1 0,7 - - 34 18 48 26 W 1006,3 35 0,0
17.01.2020 20:00:00 5,8 0,4 - - 21 11 - - W 1005,5 23 0,0
17.01.2020 19:00:00 5,7 0,4 - - 24 13 - - W 1004,7 30 0,0
17.01.2020 18:00:00 6,0 0,6 - - 22 12 - - W 1003,7 26 0,0
17.01.2020 17:00:00 5,8 1,4 - - 18 10 - - WSW 1002,5 30 0,0
17.01.2020 16:00:00 5,5 1,1 - - 18 10 - - SW 1001,4 35 0,0
17.01.2020 15:00:00 6,2 1,3 - - 21 11 48 26 SW 1000,6 40 0,0
17.01.2020 14:00:00 8,7 2,5 - - 16 9 - - WSW 999,9 15 0,0
17.01.2020 13:00:00 6,8 2,9 - - 26 14 - - SSW 999,0 45 0,0
17.01.2020 12:00:00 5,6 2,4 - - 29 16 - - SW 998,7 50 0,0
17.01.2020 11:00:00 5,3 2,1 - - 26 14 - - SW 997,9 45 0,0
17.01.2020 10:00:00 4,8 1,5 - - 21 11 - - WSW 997,5 40 0,0
17.01.2020 09:00:00 4,8 0,4 4,7 5,4 31 17 63 34 SW 996,2 35 0,0
17.01.2020 08:00:00 5,4 0,1 - - 42 23 61 33 SW 994,7 30 0,0
17.01.2020 07:00:00 5,3 1,1 - - 42 23 57 31 SW 994,8 45 0,0
17.01.2020 06:00:00 5,4 0,9 - - 37 20 52 28 SW 994,4 29 0,0
17.01.2020 05:00:00 5,2 1,4 - - 35 19 59 32 SW 994,3 40 0,0
17.01.2020 04:00:00 5,6 1,8 - - 34 18 57 31 SW 994,4 50 0,0
17.01.2020 03:00:00 6,0 2,3 - - 39 21 55 30 SSW 994,1 30 0,0
17.01.2020 02:00:00 6,7 1,9 - - 35 19 54 29 SW 993,8 30 0,0
17.01.2020 01:00:00 5,6 2,6 - - 28 15 48 26 SW 993,5 40 0,0
17.01.2020 00:00:00 6,4 3,1 - - 34 18 55 30 SW 992,4 50 0,0
16.01.2020 23:00:00 7,1 3,0 - - 41 22 61 33 SW 991,1 50 0,0
16.01.2020 22:00:00 6,9 3,3 - - 41 22 63 34 SSW 989,9 50 0,0
16.01.2020 21:00:00 6,8 4,5 - - 21 11 - - SW 989,6 50 0,0
16.01.2020 20:00:00 7,1 4,1 - - 21 11 - - S 988,6 50 0,0
16.01.2020 19:00:00 5,9 3,3 - - 9 5 - - SSE 988,7 50 0,0
16.01.2020 18:00:00 6,8 3,9 - - 29 16 - - SE 989,7 50 0,8
16.01.2020 17:00:00 6,9 4,8 - - 18 10 - - SE 991,5 8 1,0
16.01.2020 16:00:00 7,5 4,0 - - 35 19 48 26 SE 992,7 40 0,0
16.01.2020 15:00:00 7,8 3,8 - - 24 13 50 27 ESE 994,3 40 0,0
16.01.2020 14:00:00 8,4 4,5 - - 24 13 - - S 997,0 50 0,0
16.01.2020 13:00:00 8,5 4,4 - - 22 12 - - SE 998,9 50 0,0
16.01.2020 12:00:00 7,8 4,3 - - 15 8 - - SSE 999,8 12 0,0
16.01.2020 11:00:00 7,1 4,0 - - 24 13 - - SE 1000,8 45 0,0
16.01.2020 10:00:00 6,5 3,3 - - 18 10 - - SE 1001,8 50 0,0
16.01.2020 09:00:00 5,1 3,4 4,5 5,4 15 8 - - SE 1002,1 50 0,0
16.01.2020 08:00:00 4,4 2,0 - - 11 6 - - S 1002,4 30 0,0
16.01.2020 07:00:00 3,9 1,2 - - 13 7 - - SSE 1002,6 40 0,0
16.01.2020 06:00:00 3,8 1,5 - - 8 4 - - SSW 1002,4 45 0,0
16.01.2020 05:00:00 4,4 1,4 - - 15 8 46 25 SSW 1003,2 26 0,0
16.01.2020 04:00:00 4,9 1,9 - - 37 20 48 26 SSW 1002,5 40 0,0
16.01.2020 03:00:00 4,0 1,3 - - 24 13 - - SSW 1001,7 30 0,0
16.01.2020 02:00:00 4,6 1,8 - - 31 17 - - SW 1000,3 30 0,0
16.01.2020 01:00:00 3,4 0,5 - - 15 8 - - SSW 999,6 25 0,0
16.01.2020 00:00:00 3,9 1,1 - - 11 6 55 30 W 998,3 27 0,0
15.01.2020 23:00:00 5,3 2,6 - - 24 13 59 32 SW 997,2 40 0,0
15.01.2020 22:00:00 5,8 4,2 - - 31 17 - - SW 995,3 50 0,4
15.01.2020 21:00:00 5,3 3,4 - - 26 14 54 29 SW 993,5 50 0,0
15.01.2020 20:00:00 6,1 3,7 - - 34 18 54 29 SW 991,8 29 0,2
15.01.2020 19:00:00 5,7 3,8 - - 26 14 - - SW 989,9 50 0,0
15.01.2020 18:00:00 5,3 3,9 - - 24 13 - - SW 988,2 50 0,0
15.01.2020 17:00:00 5,0 3,4 - - 29 16 - - SW 986,6 21 0,2
15.01.2020 16:00:00 5,0 3,2 - - 35 19 54 29 SW 985,1 50 0,2
15.01.2020 15:00:00 5,2 3,1 - - 31 17 52 28 SW 983,7 35 0,0
15.01.2020 14:00:00 5,7 3,3 - - 29 16 - - SW 982,5 45 0,0
15.01.2020 13:00:00 6,4 4,0 - - 18 10 48 26 WSW 981,4 28 0,6
15.01.2020 12:00:00 6,7 2,8 - - 22 12 54 29 SSW 980,1 45 0,0
15.01.2020 11:00:00 5,8 2,3 - - 31 17 70 38 SW 979,6 50 0,0
15.01.2020 10:00:00 5,8 1,7 - - 39 21 59 32 SW 978,8 40 0,0
15.01.2020 09:00:00 4,6 1,3 4,4 5,5 42 23 68 37 SW 977,8 35 0,0
15.01.2020 08:00:00 4,3 1,4 - - 42 23 61 33 SW 977,4 40 0,0
15.01.2020 07:00:00 4,0 1,4 - - 39 21 52 28 SW 976,5 45 0,0
15.01.2020 06:00:00 3,7 1,5 - - 31 17 57 31 SW 976,7 40 0,0
15.01.2020 05:00:00 3,0 1,0 - - 34 18 52 28 SSW 975,7 50 0,0
15.01.2020 04:00:00 3,7 0,9 - - 35 19 54 29 SW 976,9 9 0,0
15.01.2020 03:00:00 3,2 1,3 - - 21 11 - - SW 976,7 17 0,0
15.01.2020 02:00:00 3,0 1,1 - - 31 17 54 29 SW 977,0 45 0,0
15.01.2020 01:00:00 2,7 0,8 - - 31 17 46 25 SSW 976,2 50 0,0
15.01.2020 00:00:00 2,2 0,6 - - 24 13 50 27 SSW 976,3 45 0,0
14.01.2020 23:00:00 2,6 0,7 - - 31 17 50 27 SSW 976,1 50 0,0
14.01.2020 22:00:00 2,2 0,7 - - 24 13 - - SW 975,6 50 0,0
14.01.2020 21:00:00 1,5 0,4 - - 18 10 - - SSW 975,1 50 0,0
14.01.2020 20:00:00 2,1 1,0 - - 16 9 - - SW 975,2 50 0,2
14.01.2020 19:00:00 2,3 1,3 - - 24 13 - - SSW 974,5 50 0,0
14.01.2020 18:00:00 3,0 1,0 - - 22 12 - - SW 975,1 9 0,2
14.01.2020 17:00:00 2,5 -0,6 - - 21 11 - - SSW 974,5 35 0,0
14.01.2020 16:00:00 3,2 0,5 - - 28 15 - - S 974,4 35 0,0
14.01.2020 15:00:00 3,3 1,1 - - 22 12 52 28 SSW 974,9 50 0,0
14.01.2020 14:00:00 3,9 1,3 - - 39 21 63 34 SSW 975,7 50 0,0
14.01.2020 13:00:00 3,6 1,0 - - 46 25 67 36 SSW 976,5 29 0,0
14.01.2020 12:00:00 3,9 1,4 - - 24 13 55 30 SSW 977,0 19 0,0
14.01.2020 11:00:00 3,5 1,3 - - 35 19 50 27 SSW 977,2 35 0,0
14.01.2020 10:00:00 2,9 1,3 - - 26 14 - - SSW 977,1 50 0,0
14.01.2020 09:00:00 2,2 1,1 4,7 5,5 22 12 - - SW 976,6 50 0,0
14.01.2020 08:00:00 1,8 0,8 - - 37 20 57 31 SSW 976,1 50 0,6
14.01.2020 07:00:00 1,7 1,0 - - 18 10 50 27 SW 975,9 3,1 0,4
14.01.2020 06:00:00 1,8 0,8 - - 42 23 61 33 SW 974,7 4,7 0,2
14.01.2020 05:00:00 2,2 0,8 - - 29 16 48 26 SW 973,7 50 0,2
14.01.2020 04:00:00 2,0 1,0 - - 24 13 54 29 SSW 973,5 24 0,4
14.01.2020 03:00:00 2,2 1,5 - - 28 15 65 35 SSW 973,2 28 0,8
14.01.2020 02:00:00 3,0 1,1 - - 42 23 61 33 SSW 971,9 50 0,0
14.01.2020 01:00:00 3,8 2,2 - - 37 20 74 40 SW 971,5 45 0,4
14.01.2020 00:00:00 5,3 2,0 - - 35 19 67 36 SSW 970,3 23 0,0
13.01.2020 23:00:00 6,1 2,8 - - 34 18 55 30 SW 969,3 15 0,0
13.01.2020 22:00:00 6,2 3,6 - - 42 23 74 40 SSW 968,6 29 0,2
13.01.2020 21:00:00 5,3 3,4 - - 48 26 87 47 SSW 967,7 45 1,0
13.01.2020 20:00:00 6,8 2,3 - - 41 22 68 37 S 967,4 45 0,0

tt = Température de l'air
td = dewpoint
tt -20cm = Température de l'air -20cm
tt -100cm = Température de l'air -100cm
ff = Vitesse du vent
fx = gusts
dd = Direction du vent
ppp = reduced air pressure
vv = visibility
rr = Quantités de précipitations

stations d'obs. à proximité